Погода в Норильске

Погода в Норильске : погода сейчас, прогноз погоды и архив. Всё, что Вы хотите узнать о погоде в Норильске!

Поиск расширенной информации на нашем сайте:

Другие новости

Новости СМИ2

Главная страница сайта

Новости сайта

03.07.2017

Напоминаем, что на нашем специализированном сайте Метеоцентр.Азия вы можете получить высокодетализированные автоматические прогнозы погоды по пунктам России, СНГ и мира в авиационном формате (включающие направление и скорость ветра, видимость, явления погоды, количество и форму облачности, нижнюю и верхнюю границу облачности).

Рекомендуем: Рамблер топ100 строительство и ремонт москва.

Погода в Норильске - сегодня

Время (UTC), дата Ветер
(°,м/с) 
Видим.   Явления Облачность Т
(°С)
Тd
(°С)
f(%) Тe
(°С)
Pmin
(гПа)
dP
(гПа)
Po
(мм)
O2
(г/м3)
Тmin Tmax R s Состояние
почвы
03 19.11.17 320 (СЗ) 20000 м    8/0 верхняя 
[Ci fib]
-29.6 -32.6 75 -33  1018.5  -1.5  757  344  -29.8         
06 19.11.17 330 (СЗ) 20000 м    4/0 верхняя 
[Ci fib]
-30.1 -33.2 74 -36  1017.5  -1  756  344           
09 19.11.17 300 (СЗ) 20000 м    4/0 верхняя 
[Ci fib]
-31 -34.1 74 -37  1017  -0.5  756  346           
12 19.11.17 310 (СЗ) 4000 м  дымка  6/0 верхняя 
[Cs]
-31.7 -34.1 79 -36  1016.5  -0.5  755  346    -29.4       
15 19.11.17 320 (СЗ) 4000 м  дымка  8/0 верхняя 
[Cs]
-32.8 -35.8 75 -39  1016.4  -0.2  755  348           
18 19.11.17 320 (СЗ) 4000 м  дымка  ясно 
-33.4 -36.3 75 -37  1016.5  0.1  755  349           
21 19.11.17 320 (СЗ) 20000 м    ясно 
-33.4 -37 70 -37  1017.6  1.1  756  349           
00 20.11.17 170 (Ю) 20000 м    ясно 
-34.4 -38.1 69 -35  1018.7  757  351  -35.1      18  равномерный
сухой снег
100% 
03 20.11.17 140 (ЮВ) 20000 м    3/3 2000 м средняя 
[Ac lent]
-35.2 -38.7 70 -36  1020  1.3  758  353  -36.2         
06 20.11.17 тихо ()   20000 м    4/3 2000 м средняя, верхняя 
[Ac lent|Ci sp]
-37.1 -40.8 69 -37  1021.6  1.5  759  356           
09 20.11.17 тихо ()   20000 м    3/3 2000 м средняя 
[Ac lent]
-36.8 -40.4 69 -37  1023.1  1.5  760  356           
12 20.11.17 140 (ЮВ) 20000 м    ясно 
-36.8 -40.4 69 -38  1025  1.8  762  357    -34.4       
15 20.11.17 тихо ()   20000 м    ясно 
-36.9 -39.8 74 -37  1026.7  1.7  763  357           
18 20.11.17 тихо ()   20000 м    ясно 
-36.6 -39.4 75 -37  1027.9  1.3  764  357           
21 20.11.17 тихо ()   20000 м    ясно 
-36 -39 74 -36  1029.2  1.3  765  357           
00 21.11.17 340 (С) 20000 м    ясно 
-35.9 -38.7 75 -37  1030.3  1.1  766  357  -37.4      17  равномерный
сухой снег
100% 
03 21.11.17 тихо ()   20000 м    3/0 верхняя 
[Ci fib]
-34.7 -38.4 69 -35  1030.8  0.5  766  356           
06 21.11.17 тихо ()   20000 м    ясно 
-34.8 -38.4 70 -35  1031  0.2  766  356           
09 21.11.17 тихо ()   20000 м    ясно 
-37.4 -40.8 70 -37  1031.6  0.5  767  360           
12 21.11.17 тихо ()   20000 м    ясно 
-37.7 -41.2 70 -38  1031.6  767  360    -34.5       
15 21.11.17 130 (ЮВ) 20000 м    ясно 
-37.4 -40.8 70 -38  1031.5  -0.1  766  360           
18 21.11.17 тихо ()   20000 м    ясно 
-37.2 -40.8 69 -37  1032.2  0.7  767  360           
21 21.11.17 тихо ()   20000 м    ясно 
-37 -40.4 70 -37  1033.1  0.9  768  360           
00 22.11.17 тихо ()   20000 м    ясно 
-36.4 -40.1 68 -36  1033.2  0.4  768  359  -38      17  равномерный
сухой снег
100% 
03 22.11.17 120 (ЮВ) 20000 м    ясно 
-36.6 -39.4 75 -38  1034.7  1.1  769  360           
Время (UTC), дата Ветер
(°,м/с) 
Видим.   Явления Облачность Т
(°С)
Тd
(°С)
f(%) Тe
(°С)
Pmin
(гПа)
dP
(гПа)
Po
(мм)
O2
(г/м3)
Тmin Tmax R s Состояние
почвы

Для получения пояснительной информации подведите курсор к названию столбца.

ПОГОДА в Норильске - архив

Всё, что Вы хотите узнать о погоде в Норильске - удобно и подробно!

Выберите нужную дату (начиная с 1 января 2015* года) и нажмите кнопку "Найти".
Будут отображены архивные сводки погоды по пункту Норильск, начиная с указанной даты.


Отображать данные в формате CSV (для использования в таблицах Excel)


Внимание! Наш архив погоды предназначен исключительно для личного некоммерческого использования в познавательных целях. Если Вам необходимы официальные справки о состоянии погоды (для производственных, юридических, коммерческих и т.п. целей), обращайтесь в органы Росгидромета.

*Примечание: данная дата относится к архиву по метеостанциям СССР (Россия, СНГ, Балтия).
Архив по метеостанциям Зарубежной Европы и Азии (кроме Китая) хранится 10 дней, по другим регионам земного шара (Китай, Африка, Америка, Австралия, Океания) - 1 день.

Норильск - район местоположения метеостанции


Название, широта, долгота, высота метеостанции:
Норильск (Алыкель) 69.3°ш. 87.2°д. 175 м над ур. моря [Российская Федерация]

Дополнительная информация

В oтличие oт бoльшинства пoгoдных сайтoв мы публикуем пoдрoбную метеoинфoрмацию в детальнoм прoфессиoнальнoм фoрмате.

Характеристики температуры и влажнoсти вoздуха измеряются на высoте 2 м в тени вдали oт зданий и деревьев.
Скoрoсть ветра измеряется на высoте 10 м (на урoвне рoста челoвека скoрoсть ветра ниже в 1.5-2 раза). Если метеoстанция нахoдится в гoрoде или в лесу, тo скoрoсть ветра занижена на 2-4 м/с пo сравнению с oткрытым местoм. Скoрoсть ветра над акватoриями крупных рек и oзёр, а также на вершинах хoлмoв на 2-5 м/с выше, чем в oбычных услoвиях.
Атмoсфернoе давление в разных тoчках местнoсти мoжет значительнo oтличаться oт давления на метеoстанции, в зависимoсти oт услoвий рельефа (при пoдъёме на 10 м давление пoнижается примернo на 1 мм рт.ст.).